Tracking 27112 objects as of 27-Mar-2023
HD Live streaming from Space Station
objects crossing your sky now

ARIANE 5 R/B

Track ARIANE 5 R/B now!


NORAD ID: 40876
Int'l Code: 2015-039C
Perigee: 246.7 km
Apogee: 33,597.2 km
Inclination: 5.5 °
Period: 589.7 minutes
Semi major axis: 23292 km
RCS: Unknown
Launch date: August 20, 2015
Source: France (FR)
Launch site: FRENCH GUIANA (FRGUI)

Note: This is a ROCKET BODY
Your satellite tracking list
Your tracking list is empty




NASA's NSSDC Master Catalog

Two Line Element Set (TLE):
1 40876U 15039C   23086.03043453  .00010379  00000-0  21467-2 0  9996
2 40876   5.5060 342.0536 7158927  37.3411 355.3283  2.44211458 65320
Source of the keplerian elements: AFSPC